Location: Prague
(50.0830°N, 14.4670°E)
Time: 14:24:37
(UTC+02:00)

First-Move - Visible Passes

Search period start: 28 March 2023 00:00
Search period end: 07 April 2023 00:00
Orbit: 563 x 644 km, 97.7° (Epoch: 28 March)

Date Brightness Start Highest point End Pass type
(mag) Time Alt. Az. Time Alt. Az. Time Alt. Az.
28 Mar ? 03:34:43 10° NE 03:37:04 15° E 03:39:07 11° ESE visible
28 Mar ? 05:09:12 10° N 05:13:21 64° WNW 05:15:57 21° SSW visible
29 Mar ? 03:46:28 10° NE 03:49:28 19° E 03:51:39 13° SE visible
29 Mar ? 05:21:33 10° N 05:25:34 48° WNW 05:28:29 17° SW visible
30 Mar ? 03:58:24 10° NE 04:01:50 25° E 04:04:09 15° SE visible
30 Mar ? 05:33:55 10° N 05:37:45 36° WNW 05:40:58 13° SW visible
31 Mar ? 04:10:24 10° NNE 04:14:09 32° E 04:16:37 17° SSE visible
31 Mar ? 05:46:20 10° N 05:49:53 28° WNW 05:53:23 10° SW visible
01 Apr ? 04:22:28 10° NNE 04:26:24 42° E 04:29:05 18° SSE visible
01 Apr ? 05:58:46 10° NNW 06:01:59 22° WNW 06:05:09 10° WSW visible
02 Apr ? 04:34:33 10° NNE 04:38:38 57° E 04:41:31 18° S visible
03 Apr ? 04:46:42 10° NNE 04:50:49 77° ESE 04:53:57 16° S visible
04 Apr ? 03:25:12 10° ENE 03:26:33 11° E 03:27:53 10° ESE visible
04 Apr ? 04:58:51 10° NNE 05:02:57 80° WNW 05:06:21 14° SSW visible
05 Apr ? 03:36:26 10° NE 03:38:50 15° E 03:41:11 10° SE visible
05 Apr ? 05:11:01 10° N 05:15:03 60° WNW 05:18:44 12° SSW visible
06 Apr ? 03:48:04 10° NE 03:51:04 19° E 03:54:01 10° SE visible
06 Apr ? 05:23:13 10° N 05:27:07 45° WNW 05:30:58 10° SW visible
